JAL3105 RJGG-RJOM

Flight info

Callsign JAL3105
Flight time 0h 49m
Altitude 34000
Route HIKNE WAKIT PIONE Y28 BAMBO Y283 ITUKI
Aircraft A359/H-SDE2E3GHIJ3J4J5LM1ORWXY/LB1D1

Departure

Time 2026-04-23 09:03
Airport Chubu Centrair International Airport (RJGG)

Arrival

Time 2026-04-23 09:52
Airport Matsuyama Airport (RJOM)
Time Latitude Longitude Altitude Speed Heading
2026-04-23 08:46 34.85773 136.81165 35 ft 0 kts 351°
2026-04-23 08:52 34.85760 136.81168 33 ft 4 kts 347°
2026-04-23 08:52 34.85735 136.81178 33 ft 4 kts 336°
2026-04-23 08:52 34.85711 136.81193 32 ft 4 kts 326°
2026-04-23 08:53 34.85695 136.81207 31 ft 1 kts 321°
2026-04-23 08:53 34.85693 136.81209 33 ft 0 kts 321°
2026-04-23 08:56 34.85694 136.81207 35 ft 3 kts 315°
2026-04-23 08:57 34.85692 136.81174 35 ft 4 kts 252°
2026-04-23 08:57 34.85684 136.81142 35 ft 4 kts 252°
2026-04-23 08:57 34.85674 136.81106 35 ft 7 kts 253°
2026-04-23 08:57 34.85662 136.81032 34 ft 9 kts 259°
2026-04-23 08:58 34.85641 136.80963 34 ft 7 kts 225°
2026-04-23 08:58 34.85601 136.80953 34 ft 5 kts 171°
2026-04-23 08:58 34.85561 136.80962 34 ft 11 kts 169°
2026-04-23 08:58 34.85461 136.80986 34 ft 14 kts 168°
2026-04-23 08:59 34.85363 136.81009 34 ft 15 kts 168°
2026-04-23 08:59 34.85259 136.81035 34 ft 16 kts 169°
2026-04-23 08:59 34.85149 136.81062 34 ft 17 kts 168°
2026-04-23 08:59 34.85033 136.81090 35 ft 17 kts 169°
2026-04-23 09:00 34.84912 136.81117 34 ft 18 kts 169°
2026-04-23 09:00 34.84790 136.81147 34 ft 18 kts 168°
2026-04-23 09:00 34.84667 136.81177 34 ft 18 kts 169°
2026-04-23 09:00 34.84539 136.81207 34 ft 19 kts 169°
2026-04-23 09:01 34.84416 136.81235 34 ft 15 kts 171°
2026-04-23 09:01 34.84351 136.81173 34 ft 12 kts 249°
2026-04-23 09:01 34.84331 136.81073 33 ft 13 kts 259°
2026-04-23 09:01 34.84313 136.80958 29 ft 15 kts 262°
2026-04-23 09:02 34.84331 136.80904 27 ft 6 kts 317°
2026-04-23 09:02 34.84400 136.80880 30 ft 13 kts 351°
2026-04-23 09:02 34.84470 136.80864 30 ft 27 kts 349°
2026-04-23 09:02 34.84984 136.80743 33 ft 122 kts 349°
2026-04-23 09:03 34.86024 136.80500 534 ft 165 kts 351°
2026-04-23 09:03 34.87200 136.80253 1562 ft 174 kts 352°
2026-04-23 09:03 34.88323 136.79961 2346 ft 166 kts 352°
2026-04-23 09:03 34.89592 136.79580 2260 ft 207 kts 349°
2026-04-23 09:04 34.91108 136.79062 2240 ft 245 kts 345°
2026-04-23 09:04 34.92807 136.78282 2359 ft 272 kts 341°
2026-04-23 09:04 34.94599 136.77388 2830 ft 285 kts 341°
2026-04-23 09:04 34.96448 136.76422 3399 ft 294 kts 339°
2026-04-23 09:05 34.97999 136.74797 4218 ft 296 kts 306°
2026-04-23 09:05 34.98714 136.72488 5117 ft 292 kts 275°
2026-04-23 09:05 34.98483 136.70089 5966 ft 281 kts 248°
2026-04-23 09:05 34.97904 136.67838 6736 ft 276 kts 248°
2026-04-23 09:06 34.97395 136.65565 7356 ft 281 kts 253°
2026-04-23 09:06 34.97125 136.63164 7841 ft 294 kts 268°
2026-04-23 09:06 34.97803 136.60813 8540 ft 299 kts 303°
2026-04-23 09:06 34.99043 136.58804 9393 ft 296 kts 304°
2026-04-23 09:07 35.00339 136.56847 9868 ft 305 kts 306°
2026-04-23 09:07 35.01738 136.54855 10296 ft 313 kts 306°
2026-04-23 09:07 35.03054 136.52714 10662 ft 320 kts 298°
2026-04-23 09:07 35.04295 136.50398 10916 ft 333 kts 298°
2026-04-23 09:08 35.05615 136.48012 11176 ft 346 kts 300°
2026-04-23 09:08 35.07022 136.45569 11401 ft 358 kts 301°
2026-04-23 09:08 35.08496 136.43069 11640 ft 366 kts 301°
2026-04-23 09:08 35.10004 136.40550 12069 ft 368 kts 301°
2026-04-23 09:09 35.11529 136.38016 12532 ft 371 kts 301°
2026-04-23 09:09 35.13059 136.35476 13016 ft 372 kts 301°
2026-04-23 09:09 35.14589 136.32932 13596 ft 371 kts 300°
2026-04-23 09:09 35.16116 136.30402 14079 ft 370 kts 301°
2026-04-23 09:10 35.17652 136.27858 14494 ft 372 kts 301°
2026-04-23 09:10 35.20672 136.22692 15275 ft 373 kts 296°
2026-04-23 09:10 35.21832 136.19887 15675 ft 368 kts 286°
2026-04-23 09:11 35.22560 136.16909 16067 ft 363 kts 276°
2026-04-23 09:11 35.22836 136.13862 16479 ft 360 kts 268°
2026-04-23 09:11 35.22683 136.10815 16862 ft 359 kts 260°
2026-04-23 09:11 35.22305 136.07794 17199 ft 362 kts 257°
2026-04-23 09:12 35.21829 136.04751 17511 ft 365 kts 256°
2026-04-23 09:12 35.21314 136.01708 17908 ft 366 kts 256°
2026-04-23 09:12 35.20790 135.98657 18278 ft 367 kts 256°
2026-04-23 09:12 35.20271 135.95597 18590 ft 369 kts 256°
2026-04-23 09:13 35.19757 135.92513 18887 ft 371 kts 256°
2026-04-23 09:13 35.19252 135.89418 19222 ft 372 kts 256°
2026-04-23 09:13 35.18749 135.86316 19574 ft 373 kts 257°
2026-04-23 09:13 35.18248 135.83205 19907 ft 373 kts 257°
2026-04-23 09:14 35.17747 135.80088 20227 ft 374 kts 257°
2026-04-23 09:14 35.17246 135.76961 20526 ft 375 kts 257°
2026-04-23 09:14 35.16739 135.73828 20858 ft 376 kts 257°
2026-04-23 09:14 35.16229 135.70689 21198 ft 377 kts 257°
2026-04-23 09:15 35.15718 135.67542 21515 ft 378 kts 257°
2026-04-23 09:15 35.15205 135.64381 21825 ft 380 kts 257°
2026-04-23 09:15 35.14696 135.61259 22126 ft 380 kts 257°
2026-04-23 09:15 35.14176 135.58086 22432 ft 382 kts 257°
2026-04-23 09:16 35.13656 135.54902 22718 ft 383 kts 258°
2026-04-23 09:16 35.13133 135.51704 22970 ft 385 kts 258°
2026-04-23 09:16 35.12607 135.48495 23264 ft 386 kts 258°
2026-04-23 09:16 35.12078 135.45272 23479 ft 389 kts 257°
2026-04-23 09:17 35.11542 135.42018 23635 ft 392 kts 257°
2026-04-23 09:17 35.11002 135.38754 23885 ft 393 kts 257°
2026-04-23 09:17 35.10458 135.35479 24135 ft 393 kts 258°
2026-04-23 09:17 35.09914 135.32208 24386 ft 394 kts 258°
2026-04-23 09:18 35.09368 135.28914 24611 ft 396 kts 258°
2026-04-23 09:18 35.08825 135.25645 24845 ft 397 kts 258°
2026-04-23 09:18 35.08269 135.22304 25100 ft 398 kts 258°
2026-04-23 09:18 35.07716 135.18987 25345 ft 399 kts 257°
2026-04-23 09:19 35.07162 135.15666 25592 ft 401 kts 257°
2026-04-23 09:19 35.06603 135.12327 25846 ft 401 kts 257°
2026-04-23 09:19 35.06043 135.08988 26077 ft 403 kts 257°
2026-04-23 09:19 35.05479 135.05626 26337 ft 404 kts 257°
2026-04-23 09:20 35.04914 135.02272 26596 ft 405 kts 257°
2026-04-23 09:20 35.04343 134.98888 26846 ft 407 kts 257°
2026-04-23 09:20 35.03764 134.95509 27154 ft 407 kts 256°
2026-04-23 09:20 35.02959 134.92199 27422 ft 408 kts 250°
2026-04-23 09:21 35.01861 134.88992 27681 ft 410 kts 247°
2026-04-23 09:21 35.00684 134.85827 27951 ft 412 kts 246°
2026-04-23 09:21 34.99456 134.82665 28273 ft 413 kts 245°
2026-04-23 09:21 34.98206 134.79513 28503 ft 415 kts 245°
2026-04-23 09:22 34.96935 134.76328 28721 ft 418 kts 245°
2026-04-23 09:22 34.94342 134.69806 28789 ft 437 kts 245°
2026-04-23 09:23 34.91700 134.63131 28778 ft 437 kts 245°
2026-04-23 09:23 34.89063 134.56470 28782 ft 436 kts 245°
2026-04-23 09:24 34.86428 134.49813 28772 ft 437 kts 245°
2026-04-23 09:24 34.83803 134.43200 28774 ft 436 kts 245°
2026-04-23 09:25 34.81161 134.36559 28772 ft 436 kts 245°
2026-04-23 09:25 34.78519 134.29914 28779 ft 441 kts 245°
2026-04-23 09:25 34.77170 134.26521 28780 ft 453 kts 245°
2026-04-23 09:26 34.75776 134.23037 28759 ft 458 kts 245°
2026-04-23 09:26 34.72987 134.16095 28758 ft 455 kts 245°
2026-04-23 09:27 34.70211 134.09173 28781 ft 456 kts 245°
2026-04-23 09:27 34.67463 134.02233 28789 ft 456 kts 248°
2026-04-23 09:28 34.65147 133.95097 28778 ft 453 kts 250°
2026-04-23 09:28 34.62929 133.87925 28776 ft 454 kts 250°
2026-04-23 09:29 34.60726 133.80741 28784 ft 453 kts 250°
2026-04-23 09:29 34.58522 133.73599 28779 ft 452 kts 250°
2026-04-23 09:30 34.56308 133.66464 28783 ft 452 kts 250°
2026-04-23 09:30 34.54084 133.59334 28790 ft 452 kts 250°
2026-04-23 09:31 34.51771 133.52250 28787 ft 451 kts 249°
2026-04-23 09:31 34.49458 133.45301 28767 ft 434 kts 249°
2026-04-23 09:32 34.47222 133.38578 28672 ft 426 kts 249°
2026-04-23 09:32 34.46143 133.35274 28156 ft 418 kts 250°
2026-04-23 09:32 34.45106 133.31983 27403 ft 417 kts 250°
2026-04-23 09:32 34.44093 133.28712 26718 ft 414 kts 250°
2026-04-23 09:33 34.43086 133.25449 26058 ft 411 kts 250°
2026-04-23 09:33 34.42088 133.22223 25416 ft 408 kts 250°
2026-04-23 09:33 34.41090 133.19015 24759 ft 405 kts 250°
2026-04-23 09:33 34.40093 133.15846 24116 ft 403 kts 250°
2026-04-23 09:34 34.39088 133.12682 23477 ft 399 kts 250°
2026-04-23 09:34 34.38099 133.09610 22776 ft 396 kts 250°
2026-04-23 09:34 34.37112 133.06516 22116 ft 391 kts 250°
2026-04-23 09:34 34.36143 133.03458 21470 ft 387 kts 250°
2026-04-23 09:35 34.35181 133.00431 20837 ft 384 kts 250°
2026-04-23 09:35 34.34225 132.97438 20207 ft 380 kts 250°
2026-04-23 09:35 34.33254 132.94468 19553 ft 378 kts 247°
2026-04-23 09:35 34.31989 132.91690 18926 ft 378 kts 237°
2026-04-23 09:36 34.30257 132.89301 18279 ft 380 kts 224°
2026-04-23 09:36 34.28124 132.87427 17721 ft 372 kts 216°
2026-04-23 09:36 34.25901 132.85996 17232 ft 354 kts 205°
2026-04-23 09:36 34.23618 132.85092 16813 ft 337 kts 200°
2026-04-23 09:37 34.21382 132.84460 16317 ft 324 kts 197°
2026-04-23 09:37 34.19180 132.83976 15580 ft 319 kts 195°
2026-04-23 09:37 34.17027 132.83447 14832 ft 313 kts 199°
2026-04-23 09:37 34.14916 132.82825 14050 ft 311 kts 199°
2026-04-23 09:38 34.12838 132.82177 13301 ft 306 kts 200°
2026-04-23 09:38 34.10787 132.81518 12488 ft 304 kts 200°
2026-04-23 09:38 34.08758 132.80856 11682 ft 301 kts 199°
2026-04-23 09:38 34.06748 132.80206 10904 ft 295 kts 205°
2026-04-23 09:39 34.05076 132.78881 10169 ft 284 kts 230°
2026-04-23 09:39 34.04087 132.76879 9425 ft 277 kts 255°
2026-04-23 09:39 34.03950 132.74601 8624 ft 273 kts 280°
2026-04-23 09:39 34.04674 132.72517 7847 ft 271 kts 307°
2026-04-23 09:40 34.06101 132.71071 7090 ft 270 kts 336°
2026-04-23 09:40 34.07901 132.70583 6360 ft 265 kts
2026-04-23 09:40 34.09695 132.70970 5596 ft 261 kts 17°
2026-04-23 09:40 34.11421 132.71617 4906 ft 257 kts 21°
2026-04-23 09:41 34.13135 132.72297 4833 ft 262 kts 21°
2026-04-23 09:41 34.14876 132.72993 5409 ft 264 kts 20°
2026-04-23 09:41 34.16583 132.73695 5894 ft 256 kts 20°
2026-04-23 09:41 34.18259 132.74406 6054 ft 255 kts 21°
2026-04-23 09:42 34.19893 132.75236 6060 ft 256 kts 29°
2026-04-23 09:42 34.21305 132.76539 6063 ft 257 kts 46°
2026-04-23 09:42 34.22227 132.78373 6058 ft 259 kts 70°
2026-04-23 09:42 34.22414 132.80527 6060 ft 262 kts 94°
2026-04-23 09:43 34.21770 132.82595 6059 ft 269 kts 120°
2026-04-23 09:43 34.20361 132.84091 6060 ft 279 kts 151°
2026-04-23 09:43 34.18437 132.84473 6067 ft 288 kts 185°
2026-04-23 09:43 34.16498 132.83817 6082 ft 292 kts 199°
2026-04-23 09:44 34.14575 132.82988 6051 ft 294 kts 198°
2026-04-23 09:44 34.12634 132.82223 6046 ft 294 kts 196°
2026-04-23 09:44 34.10677 132.81526 6046 ft 293 kts 194°
2026-04-23 09:44 34.08711 132.80873 5983 ft 291 kts 193°
2026-04-23 09:45 34.06724 132.80530 5494 ft 288 kts 174°
2026-04-23 09:45 34.04757 132.80887 5049 ft 285 kts 164°
2026-04-23 09:45 34.02833 132.81403 4670 ft 281 kts 162°
2026-04-23 09:45 34.00922 132.81887 4271 ft 281 kts 168°
2026-04-23 09:46 33.98976 132.82075 3875 ft 279 kts 174°
2026-04-23 09:46 33.97042 132.82148 3504 ft 278 kts 174°
2026-04-23 09:46 33.95186 132.82197 3619 ft 255 kts 175°
2026-04-23 09:46 33.93470 132.82177 3650 ft 238 kts 176°
2026-04-23 09:47 33.91889 132.82169 3662 ft 216 kts 175°
2026-04-23 09:47 33.90447 132.82165 3720 ft 198 kts 175°
2026-04-23 09:47 33.89137 132.82160 3774 ft 179 kts 174°
2026-04-23 09:47 33.87933 132.82163 3654 ft 171 kts 174°
2026-04-23 09:48 33.86757 132.82203 3380 ft 166 kts 171°
2026-04-23 09:48 33.85647 132.82355 3056 ft 157 kts 164°
2026-04-23 09:48 33.84574 132.82523 2932 ft 156 kts 166°
2026-04-23 09:48 33.83475 132.82633 2802 ft 160 kts 169°
2026-04-23 09:49 33.82737 132.82585 2657 ft 163 kts 183°
2026-04-23 09:49 33.81269 132.82073 2295 ft 163 kts 194°
2026-04-23 09:49 33.80242 132.81578 2034 ft 158 kts 207°
2026-04-23 09:49 33.79408 132.80798 1850 ft 150 kts 228°
2026-04-23 09:50 33.79057 132.80071 1716 ft 149 kts 256°
2026-04-23 09:50 33.78923 132.78847 1564 ft 148 kts 271°
2026-04-23 09:50 33.78924 132.77614 1417 ft 148 kts 276°
2026-04-23 09:50 33.79011 132.76396 1164 ft 143 kts 280°
2026-04-23 09:51 33.79224 132.75228 805 ft 143 kts 292°
2026-04-23 09:51 33.79683 132.74224 628 ft 134 kts 311°
2026-04-23 09:51 33.80283 132.73362 503 ft 135 kts 314°
2026-04-23 09:51 33.80888 132.72519 312 ft 130 kts 315°
2026-04-23 09:52 33.81491 132.71674 181 ft 135 kts 315°
2026-04-23 09:52 33.82093 132.70833 34 ft 129 kts 315°
2026-04-23 09:52 33.82624 132.70103 24 ft 89 kts 310°
2026-04-23 09:52 33.82872 132.69754 31 ft 42 kts 311°
2026-04-23 09:53 33.82968 132.69620 27 ft 9 kts 311°
2026-04-23 09:53 33.83060 132.69493 27 ft 25 kts 310°
2026-04-23 09:53 33.83137 132.69385 27 ft 17 kts 311°
2026-04-23 09:53 33.83234 132.69358 26 ft 15 kts 34°
2026-04-23 09:54 33.83288 132.69448 28 ft 12 kts 90°
2026-04-23 09:54 33.83245 132.69538 28 ft 14 kts 131°
2026-04-23 09:54 33.83178 132.69632 28 ft 13 kts 130°
2026-04-23 09:54 33.83110 132.69727 27 ft 17 kts 130°
2026-04-23 09:55 33.83029 132.69841 27 ft 19 kts 130°
2026-04-23 09:55 33.82935 132.69972 30 ft 20 kts 130°
2026-04-23 09:55 33.82854 132.70086 30 ft 19 kts 129°
2026-04-23 09:55 33.82780 132.70191 30 ft 12 kts 131°
2026-04-23 09:56 33.82740 132.70245 29 ft 0 kts 131°
2026-04-23 09:58 33.82735 132.70252 26 ft 7 kts 130°
2026-04-23 09:58 33.82736 132.70312 27 ft 8 kts 64°
2026-04-23 09:58 33.82774 132.70364 30 ft 8 kts 46°
2026-04-23 09:59 33.82796 132.70392 30 ft 0 kts 47°